星链-30401 (STARLINK-30401 )

导读

STARLINK-30401是美国太空探索技术公司星链互联网星座的一员,于2023年9月9日发射入轨。该卫星旨在为全球提供高速低延迟互联网服务,尤其覆盖偏远与网络基础设施匮乏地区。星链系统通过大量低轨卫星组网,持续拓展星座规模,推动全球互联网普及,Starlink-30401也为星座服务能力提升添砖加瓦。

Basic Information
目录编号:
57818
目录名称:
STARLINK-30401
国际标识:
2023-138L
轨道中心:
EARTH
卫星名称:
星链-30401
卫星全名:
星链-30401 (STARLINK-30401 )
卫星状态:
在轨 (已飞行1013 天)
发射日期:
2023-09-09 UTC
国别 :
美国 (US)
星等 :
--
Orbit Information
数据来源 国际轨道数据
星历时间: 2026-06-18T07:41:22+0800
13小时前
查看轨道信息
半长轴: 6861.181km
偏心率: 0.0000111
轨道倾角: 43.001°
近地点辐角 195.475°
升交点赤经 28.077°
平近点角 164.610°
近地点: 482.967km
远地点: 483.121km
周期: 94.267分钟
每日圈数: 15.27582
Detailed Information
固有亮度:
5
最大亮度:
0.3
卫星平台:
Starlink v2.0 mini
覆盖范围:
全球
运营商:
太空探索技术公司
运营商所在国:
美国
制造商(研发单位):
太空探索技术公司
制造商所在国:
美国
使用方式:
暂无
Satellite Introduction
星链(Starlink)计划是由太空探索技术公司(SpaceX)提出的一个巨型低轨卫星互联网星座项目,计划在2019年至2024年间在太空搭建由约1.2万颗卫星组成的“星链”网络,其中1584颗将部署在地球上空550千米处的近地轨道,并从2020年开始工作。该卫星仍在工作。
2D Orbit Map
3D Orbit Map
Orbit Altitude Analysis Chart
Orbit Inclination Analysis Chart
Orbit Comprehensive Analysis Chart
View Comprehensive Chart